Tracking 29892 objects as of 21-Nov-2024
HD Live streaming from Space Station
objects crossing your sky now

QIANFAN-20

Track QIANFAN-20 now!
10-day predictions


NORAD ID: 61553
Int'l Code: 2024-185B
Perigee: 803.6 km
Apogee: 819.1 km
Inclination: 89.0 °
Period: 101.0 minutes
Semi major axis: 7182 km
RCS: Unknown
Launch date: October 15, 2024
Source: People's Republic of China (PRC)
Launch site: Taiyaun Space Center, China (TSC)
Your satellite tracking list
Your tracking list is empty




NASA's NSSDC Master Catalog

Two Line Element Set (TLE):
1 61553U 24185B   24326.12798032  .00000872  00000-0  35760-3 0  9990
2 61553  88.9887 122.0955 0010810 110.3620 249.8735 14.26272354 15029
Source of the keplerian elements: AFSPC